Location: *
(45.4590°N, 16.3650°E)
Time: 01:13:26
(UTC+00:00)

STARLINK-1144 - Pass Details

Date: 17 January 2020
Orbit: 548 x 551 km, 53.0° (Epoch: 28 February)

Event Time Altitude Azimuth Distance (km) Brightness Sun altitude
Rises 16:14:01 0° 224° (SW) 2,709 8.6 -6.3°
Reaches altitude 10° 16:16:16 10° 220° (SW) 1,820 7.4 -6.6°
Maximum altitude 16:20:19 57° 142° (SE) 651 3.9 -7.3°
Enters shadow 16:24:24 10° 64° (ENE) 1,828 5.6 -7.9°
